Regional Weather Roundup
Issued by NWS Wakefield, VA

Home | Current Version | Previous Version | Graphics & Text | Print | Product List | Glossary On
Versions: 1 2 3 4 5 6 7 8 9 10 11 12 13 14 15 16 17 18 19 20 21 22 23 24 25 26 27
000
ASUS41 KAKQ 231915
RWRAKQ

REGIONAL WEATHER ROUNDUP
NATIONAL WEATHER SERVICE WAKEFIELD VA
300 PM EDT FRI JUN 23 2017

Note: "fair" indicates few or no clouds below 12,000 feet with no
significant weather and/or obstructions to visibility. * = Denotes
station may not report precipitation (e.g., rain,snow,etc.),
thunder or fog.

VAZ042-051-052>054-056-232000-
NORTHERN VIRGINIA

CITY           SKY/WX    TMP DP  RH WIND       PRES   REMARKS
WASH NATIONAL  PTSUNNY   87  74  64 SW24G30   29.76F HX  95
DULLES         PTSUNNY   85  72  65 S15G25    29.76F
FORT BELVOIR   CLOUDY    85  73  68 S8        29.77F
QUANTICO       LGT RAIN  84  76  76 SW10G17   29.78F
FREDERICKSBRG* CLOUDY    84  75  72 SW12G17   29.79F
STAFFORD*      LGT RAIN  82  75  80 SW6G20    29.83F
WARRENTON      LGT RAIN  81  72  73 SW8       29.78F
CULPEPER*      LGT RAIN  81  75  83 S5        29.80F
MANASSAS*      SUNNY     82  73  74 SW14G24   29.78F
LEESBURG*      SUNNY     90  77  66 SW14G24   29.76F HX 102
WINCHESTER     CLOUDY    84  68  58 SW13G22   29.75S
FRONT ROYAL*   MOCLDY    82  72  69 SW8G18    29.76S
LURAY*         LGT RAIN  79  72  78 S12G20    29.80S
$$

VAZ048-049-060>072-079>083-232000-
CENTRAL AND SOUTH CENTRAL VIRGINIA

CITY           SKY/WX    TMP DP  RH WIND       PRES   REMARKS
RICHMOND       PTSUNNY   88  73  61 SW16G23   29.84F HX  95
CHESTERFIELD*  FAIR      88  74  63 W10G16    29.85F HX  96
PETERSBURG*    MOSUNNY   87  72  61 CALM      29.86F
HANOVER        CLOUDY    87  71  58 SW14G22   29.84F
TAPPAHANNOCK*  CLOUDY    88  70  54 SW10G17   29.82F
QUINTON*       MOCLDY    88  76  65 SW8       29.83F HX  99
CHARLOTTSVILLE CLOUDY    84  74  71 SW6       29.83S
GORDONSVILLE*  MOCLDY    83  75  78 SW9       29.81F
ORANGE*        CLOUDY    81  73  78 S8        29.81F
LOUISA*        CLOUDY    86  77  74 SW6G17    29.81F HX  97
BUMPASS*       MOCLDY    84  76  76 SW9G21    29.82F
FARMVILLE*     PTSUNNY   87  69  55 SW10G16   29.85S
CREWE*         FAIR      86  70  58 SW9       29.86F
FORT PICKETT*  FAIR      87  75  66 SW10G20   29.86F HX  96
CHASE CITY*    FAIR      87  71  58 SW6       29.87F
CLARKSVILLE*   FAIR      88  72  58 SW13G22   29.88F
SOUTH HILL*    MOSUNNY   89  75  63 SW15G24   29.94F HX  99
LAWRENCEVILLE* FAIR      88  74  62 MISG      29.88F HX  96
EMPORIA*       MOSUNNY   88  73  62 S12       29.89F HX  96
$$

VAZ088>098-232000-
SOUTHEAST VIRGINIA

CITY           SKY/WX    TMP DP  RH WIND       PRES   REMARKS
NORFOLK        SUNNY     90  75  61 SW22      29.85F HX 100
VIRGINIA BEACH PTSUNNY   88  74  63 SW20      29.86F HX  96
NORFOLK NAVAL  MOSUNNY   89  74  60 SW15G25   29.87F HX  98
WEST POINT*    MOSUNNY   89  71  55 SW14G24   29.84F HX  95
SALUDA*        MOCLDY    88  76  67 SW8G24    29.82F HX  99
NEWPORT NEWS   SUNNY     88  74  63 SW17G28   29.85F HX  96
LANGLEY AFB    MOSUNNY   88  75  67 SW16G26   29.85F HX  97
FORT EUSTIS    SUNNY     89  75  63 SW10G20   29.83F HX  99
WILLIAMSBURG*  SUNNY     91  73  55 SW13G23   29.85F HX 100
HR EXEC AP*    FAIR      90  75  62 SW20      29.84F HX 100
FRANKLIN*      MOSUNNY   88  73  62 SW15G23   29.88F HX  96
US460-WAKEFLD  MOSUNNY   88  74  63 SW14G20   29.86F HX  96
$$

VAZ020-022-025-037-045-232000-
WEST CENTRAL AND SOUTHWEST VIRGINIA

CITY           SKY/WX    TMP DP  RH WIND       PRES   REMARKS
STAUNTON*      CLOUDY    78  67  69 SW17G24   29.87F
WAYNESBORO*    CLOUDY    79  68  69 SW15G23   29.87F
HOT SPRINGS VA CLOUDY    70  63  78 W24G32    30.00F
LYNCHBURG      CLOUDY    83  72  69 SW14G21   29.88F
DANVILLE       MOSUNNY   87  72  60 SW16G29   29.89F
SOUTH BOSTON*  FAIR      88  70  54 SW10G21   29.88F
MARTINSVILLE   PTSUNNY   85  70  60 W7G16     29.92F
ROANOKE        RAIN      79  70  74 W16       29.91S
BLACKSBURG     CLOUDY    77  67  72 W6        29.98F
DUBLIN*        CLOUDY    82  62  51 W10G16    29.96F
MARION*        SUNNY     81  68  65 W8        29.98F
HILLSVILLE*    PTSUNNY   77  66  67 CALM      29.98F
RICHLANDS*     FAIR      78  66  66 SW14G24   29.96F
WISE*          CLOUDY    77  63  61 S17G24    29.96F
ABINGDON*      MOSUNNY   83  71  66 W6        29.94F
$$

MDZ021>025-VAZ099-100-232000-
SOUTHERN MARYLAND AND THE DELMARVA PENINSULA

CITY           SKY/WX    TMP DP  RH WIND       PRES   REMARKS
PATUXENT RIVER CLOUDY    85  75  72 SW12G20   29.79F
BAY BRIDGE APT PTSUNNY   90  75  62 SW10      29.75F HX 100
LEONARDTOWN    CLOUDY    82  72  69 SW14      29.81F
DOVER          CLOUDY    89  81  77 SW21G28   29.73F HX 107
GEORGETOWN     CLOUDY    86  72  62 SW16G29   29.79F
EASTON         MOSUNNY   86  73  66 SW16G23   29.81F
CAMBRIDGE      SUNNY     84  75  74 S8G20     29.79S
SALISBURY      CLOUDY    85  74  69 SW17G29   29.80F
OCEAN CITY     CLOUDY    82  75  79 SW16G26   29.81F
WALLOPS ISLAND CLOUDY    83  76  79 S15       29.83F
ACCOMACK*      CLOUDY    89  75  63 SW17G24   29.83F HX  98
$$

NCZ012>017-030>032-232000-
NORTH CENTRAL AND EASTERN NORTH CAROLINA

CITY           SKY/WX    TMP DP  RH WIND       PRES   REMARKS
ROANOKE RAPIDS FAIR      88  73  62 SW15G22   29.90S HX  96
RALEIGH        MOSUNNY   89  71  55 W18G32    29.92F HX  95
ELIZABETH CITY MOSUNNY   87  78  74 S16G26    29.91F HX 100
AHOSKIE*         N/A     87  76  71 S7        29.90F HX  97
EDENTON*       MOSUNNY   89  77  68 SW13      29.92F HX 102
CURRITUCK*     PTSUNNY   86  75  68 S10G29    29.92F HX  95
KILL DEVIL HLS MOSUNNY   85  73  66 SW12G18   29.92F
MANTEO         MOSUNNY   85  74  70 SW18      29.94F
CAPE HATTERAS  CLOUDY    83  76  79 SW13G22   29.98F
TARBORO*       NOT AVBL
GOLDSBORO      MOSUNNY   90  77  65 SW13      29.93F HX 103
WASHINGTON     MOSUNNY  N/A N/A N/A SW12G18   29.93F
GREENVILLE     MOSUNNY   90  75  62 SW13G18   29.95F HX 100
NEW BERN       MOSUNNY   89  76  65 SW12      29.96F HX 100
WILMINGTON     MOSUNNY   88  76  67 SW15G23   29.98F HX  99
$$

VAZ048-232000-
ELSEWHERE

CITY           SKY/WX    TMP DP  RH WIND       PRES   REMARKS
HARRISBURG PA  PTSUNNY   87  72  60 SW12      29.67F
BALTIMORE      PTSUNNY   88  74  63 SW17G28   29.73F HX  96
ANNAPOLIS      CLOUDY    87  76  69 SW13G25   29.74F HX  97
ANDREWS AFB    MOSUNNY   85  73  66 SW21G29   29.77F
PHILADELPHIA   PTSUNNY   86  71  60 SW20G28   29.72F
HENDERSON NC   SUNNY     86  70  59 SW15G22   29.90F
GREENSBORO     PTSUNNY   87  71  58 SW20G31   29.92F
ROCKY MOUNT    SUNNY     90  74  59 SW14G24   29.91F HX  99
$$

VAZ100-232000-
MARINE

STATION/POSITION TIME  TEMP    WIND        PRES    WAVE   SWELL
                       AIR SEA DIR/SP/G            HT/PER HT/PER
                 (UTC) (F)     (DEG/KT/KT) (MB)    (FT/S) (FT/S)
BRANDYWINE LGT   1842   81     240/ 19/ 21 1008.3F
CAPE MAY NJ      1848   81 73  230/  8/ 15 1007.9F
LEWES DE         1842   86 69  250/ 16/ 22 1008.3F
15NM E FENWICK I 1850   71 68  200/ 17/ 21 1009.7F   3/ 4   2/ 8
OCEAN-CITY-INLET 1842   71 70  210/ 15/ 19 1010.0F
WACHAPREAGUE VA  1848   87 83  210/ 12/ 20 1009.9F
THOMAS POINT MD  1900   83 78  220/ 20/ 23   N/A
GOOSES REEF MD   1900   82 79  260/ 12/ 16 1009.1    2/ 3
COVE POINT MD    1848   82     240/ 11/ 19 1009.4F
SOLOMONS ISLAND  1842   83 78  240/ 16/ 23   N/A
PINEY POINT MD   1842          260/ 10/ 16   N/A
POTOMAC MD       1900   83 79  250/ 12/ 16 1008.2    2/ 3
CAMBRIDGE MD     1842   85 81              1009.4F
LEWISETTA VA     1848   85 80  240/ 13/ 17 1009.1F
RAPPAHANNOCK LGT 1842          190/ 13/ 16 1010.9F
STINGRAY PT      1850   85     260/ 16/ 19 1010.5F
YORK RVR RNG VA  1848   85     240/ 19/ 23 1010.6F
YORKTOWN VA      1848   86 77  210/ 14/ 22 1010.0F
JAMESTOWN VA     1900   87 83  230/ 14/ 21   N/A
DOMINION TERM VA 1848   83     220/ 17/ 21 1011.2F
KIPTOPEKE VA     1842      76  240/ 14/ 17   N/A
CHES BAY BRIDGE  1848   84 76  240/ 18/ 25 1010.8F
CAPE HENRY VA    1848   86     220/ 14/ 18   N/A
WILLOUBY STN VA  1848   84     230/ 21/ 23 1010.6F
S CRANEY ISL VA  1848   87     210/ 14/ 20 1011.1F
CAPE HENRY BUOY  1900      73                N/A     3/ 8
1ST LANDING BUOY 1900   83 74              1010.9    1/ 2
CAPE CHARLES BUO 1851      67                N/A     2/ 9
64NM E OF VA BCH 1850   75 73  200/ 16/ 17 1013.3F   3/ 8   2/ 8
DUCK PIER NC     1848   83 65  210/ 16/ 19 1012.8F
44100 DUCK FRF   1805      69                N/A     2/ 8
OREGON INLET NC  1836   81 81  190/ 17/ 21 1013.9F
HATTERAS NC      1836   81 79  210/ 14/ 18 1014.9F
DIAMOND SHLS NC  1850   81 81  220/ 19/ 21 1015.2F   3/ 8   2/ 8
CAPE LOOKOUT NC  1900   83     220/ 15/ 18 1015.1F
$$




USA.gov is the U.S. government's official web portal to all federal, state and local government web resources and services.